Regional Weather Roundup
Issued by NWS Mobile, AL

Home | Current Version | Previous Version | Text Only | Print | Product List | Glossary On
Versions: 1 2 3 4 5 6 7 8 9 10 11 12 13 14 15 16 17 18 19 20 21 22 23 24 25 26 27 28 29 30 31 32 33 34 35 36 37 38 39 40 41 42 43 44 45 46 47 48 49 50
000
ASUS44 KMOB 251410
RWRMOB
REGIONAL WEATHER ROUNDUP
NATIONAL WEATHER SERVICE MOBILE AL
800 AM CST THU DEC 25 2014

NOTE: "FAIR" INDICATES FEW OR NO CLOUDS BELOW 12,000 FEET WITH NO
      SIGNIFICANT WEATHER AND/OR OBSTRUCTIONS TO VISIBILITY.

  * THESE STATIONS ARE PART OF THE UNIVERSITY OF SOUTH ALABAMA
    MESONET AND ARE NOT UNDER NWS OR FAA QUALITY CONTROL.

ALZ061>064-251500-
COASTAL ALABAMA

CITY           SKY/WX    TMP DP  RH WIND       PRES   REMARKS
MOBILE REG APT MOSUNNY   37  36  96 W5        30.27R
BROOKLEY FIELD MOSUNNY   42  38  85 CALM      30.28R
USA CAMPUS*      N/A     39  37  93 CALM      30.26R
DOG RIVER*     NOT AVBL


CITY           SKY/WX    TMP DP  RH WIND       PRES   REMARKS
MOUNT VERNON*    N/A    N/A N/A N/A CALM      30.26R
SARALAND*      NOT AVBL
BAY MINETTE*   NOT AVBL
LOXLEY*          N/A     39  39 100 CALM      30.26R
ROBERTSDALE*     N/A     41  39  93 CALM      30.26R
FAIRHOPE*        N/A     43  37  81 CALM      30.26R
ELBERTA*         N/A     41  41 100 CALM      30.24R
FOLEY*           N/A     41  37  87 CALM      30.20R
GRAND BAY*       N/A     39  39 100 CALM      30.25R
DAUPHIN ISLND* NOT AVBL
BON SCOUR NWR* NOT AVBL
GULF SHORES    SUNNY     41  38  89 N3        30.25R

$$

ALZ051>060-251500-
INTERIOR SOUTHWEST AND SOUTH CENTRAL ALABAMA

CITY           SKY/WX    TMP DP  RH WIND       PRES   REMARKS
GREENVILLE     SUNNY     39  36  89 CALM      30.22R
EVERGREEN      SUNNY     39  35  86 CALM      30.25R
CASTLEBERRY*   NOT AVBL
ATMORE*          N/A     39  37  93 NW3       30.26R
DIXIE*           N/A     37  37 100 CALM      30.21R
ANDALUSIA/OPP  SUNNY     44  37  76 NW3       30.24R
ANDALUSIA*       N/A     39  37  93 W3        30.23R
FLORALA APT    SUNNY     42  37  82 NW3       30.25R
FLORALA*         N/A     41  37  87 CALM      30.20R

$$

FLZ001>006-251500-
WESTERN FLORIDA PANHANDLE

CITY           SKY/WX    TMP DP  RH WIND       PRES   REMARKS
PENSACOLA      SUNNY     42  37  82 NW7       30.25R
NAS PENSACOLA  NOT AVBL
MILTON         SUNNY     42  37  82 CALM      30.25R
WHTNG S FIELD  MOSUNNY   43  38  82 NW3       30.26R


CITY           SKY/WX    TMP DP  RH WIND       PRES   REMARKS
WALNUT HILL*   NOT AVBL
JAY*           NOT AVBL
DUKE FIELD     SUNNY     42  37  82 NW5       30.25R
CRESTVIEW      SUNNY     43  37  79 N5        30.26R
VALPARAISO     SUNNY     42  36  79 N8        30.25R
DESTIN         SUNNY     46  38  73 N9        30.25R

$$

MSZ076-079-251500-
INTERIOR SOUTHEAST MISSISSIPPI

CITY           SKY/WX    TMP DP  RH WIND       PRES   REMARKS
LEAKESVILLE*   NOT AVBL
AGRICOLA*      NOT AVBL

$$

MARINE OBSERVATIONS

STATION/POSITION TIME  TEMP    WIND        PRES    WAVE
                       AIR SEA DIR/SP/G            HT/PER
                 (UTC) (F)     (DEG/KT/KT) (MB)    (FT/S)
PASCAGOULA       1400   42     310/  3/  4 1024.8R
PETIT BOIS ISLND 1400   47     340/  8/ 10 1025.2R
GRAND BAY        1300   39     310/  4     1024.0S
KATRINA CUT      1300   45      10/ 10     1025.4R
CEDAR POINT      1300   41      10/  5     1024.0R
E DAUPHIN ISLAND 1300   46     360/  9/ 10 1023.5R
MIDDLE BAY LIGHT 1300   47     340/  9     1024.0R
USCG MOBILE BAY  1400   42 60  330/  3/  5 1023.5R
STATE DOCKS      1400   45 56              1024.2R
MEAHER PARK      1300   43     350/  2     1025.1R
WEEKS BAY        1300   38                   N/A
FORT MORGAN      1400   47      20/  7/ 10 1024.1R
12 S ORANGE BCH  1400   50 67  350/ 10/ 14 1023.7R   3/ 8
PENSACOLA BAY    1400   43 61  350/  4/  9 1024.6R
64 S DAUPHIN ISL 1400   53 73  310/ 12/ 16 1023.9R   4/ 8
67 S FORT MORGAN 1300   54     340/ 10     1023.7R

$$

SELECTED LOCATIONS ACROSS THE REGION

CITY           SKY/WX    TMP DP  RH WIND       PRES   REMARKS
NEW ORLEANS    MOSUNNY   43  39  86 CALM      30.26R
GULFPORT       SUNNY     38  36  92 NW3       30.27R
PASCAGOULA AP  SUNNY     37  36  96 CALM      30.27R
PASCAGOULA*      N/A     43  39  87 CALM      30.27R
HATTIESBURG    SUNNY     36  34  92 CALM      30.28R
LAUREL         SUNNY     36  32  87 SW3       30.27R
MERIDIAN       FOG       32  32 100 CALM      30.25R VSB 3/4
JACKSON        SUNNY     33  31  92 S3        30.25R
MONTGOMERY     SUNNY     40  36  86 CALM      30.24R
TROY           SUNNY     39  36  89 CALM      30.23R
KINSTON*       NOT AVBL
GENEVA*          N/A     43  37  81 CALM      30.27R
ASHFORD*         N/A     39  37  93 W3        30.23R
DOTHAN         SUNNY     42  37  82 NW8       30.26R
PANAMA CITY    SUNNY     45  38  76 NW8       30.24R

$$



USA.gov is the U.S. government's official web portal to all federal, state and local government web resources and services.